FW0019 Weather Reports


time (UTC)temp
C
wind
direction
speed
KPH
gust
KPH
rain 1hr
cm
rain 24hr
cm
rain mn
cm
humidity
%
barometer
mb
20260902103033 16 121 12.9 24.1 0.00 0.00 0.00 27 879.9
20260902101529 16 101 9.7 22.5 0.00 0.00 0.00 29 879.9
20260902100029 16 80 9.7 20.9 0.00 0.00 0.00 27 880.1
20260902094529 16 94 8.0 20.9 0.00 0.00 0.00 25 880.2
20260902093027 16 116 9.7 20.9 0.00 0.00 0.00 25 880.1
20260902091528 16 145 8.0 14.5 0.00 0.00 0.00 27 880.2
20260902090024 16 141 8.0 20.9 0.00 0.00 0.00 25 880.4
20260902084526 16 115 8.0 16.1 0.00 0.00 0.00 25 880.5
20260902083027 16 119 6.4 16.1 0.00 0.00 0.00 28 880.5
20260902081518 15 92 9.7 20.9 0.00 0.00 0.00 26 880.5
20260902080016 15 98 6.4 14.5 0.00 0.00 0.00 26 880.5
20260902074518 15 112 8.0 14.5 0.00 0.00 0.00 26 880.4
20260902073012 15 96 4.8 12.9 0.00 0.00 0.00 27 880.5
20260902071510 14 76 4.8 14.5 0.00 0.00 0.00 28 880.4
20260902070009 14 94 3.2 11.3 0.00 0.00 0.00 29 880.4
20260902064508 15 75 3.2 12.9 0.00 0.00 0.00 28 880.3
20260902063015 15 101 4.8 14.5 0.00 0.00 0.00 29 880.3
20260902061521 15 37 6.4 14.5 0.00 0.00 0.00 28 880.1
20260902060015 15 82 3.2 12.9 0.00 0.00 0.00 28 880.0
20260902054510 15 76 4.8 14.5 0.00 0.00 0.00 28 880.0
20260902053008 15 102 6.4 16.1 0.00 0.00 0.00 28 880.1
20260902051505 15 106 9.7 16.1 0.00 0.00 0.00 28 880.2
20260902050007 15 67 4.8 12.9 0.00 0.00 0.00 30 880.2
20260902044504 15 90 4.8 14.5 0.00 0.00 0.00 32 880.2
20260902043004 14 71 4.8 14.5 0.00 0.00 0.00 34 880.2
20260902041506 14 76 6.4 12.9 0.00 0.00 0.00 37 879.8
20260902040001 15 92 8.0 14.5 0.00 0.00 0.00 52 879.7
20260902034504 15 117 8.0 14.5 0.00 0.00 0.00 55 879.5
20260902033105 15 118 8.0 20.9 0.00 0.00 0.00 57 879.3
20260902031555 16 97 9.7 19.3 0.00 0.00 0.00 50 879.2
20260902030054 16 109 11.3 25.7 0.00 0.00 0.00 54 879.0
20260902024553 16 108 14.5 24.1 0.00 0.00 0.00 53 878.9
20260902023052 17 128 11.3 20.9 0.00 0.00 0.00 52 878.9
20260902021549 17 98 9.7 22.5 0.00 0.00 0.00 49 878.8
20260902020056 18 119 11.3 24.1 0.00 0.00 0.00 46 878.9
20260902014547 18 76 14.5 27.4 0.00 0.00 0.00 44 878.9
20260902013048 19 154 17.7 35.4 0.00 0.00 0.00 43 878.9
20260902011545 20 137 17.7 33.8 0.00 0.00 0.00 42 879.0
20260902010045 20 114 20.9 32.2 0.00 0.00 0.00 43 879.1
20260902004545 21 92 16.1 35.4 0.00 0.00 0.00 44 879.2
20260902003046 21 106 20.9 37.0 0.00 0.00 0.00 46 879.1
20260902001552 22 146 19.3 33.8 0.00 0.00 0.00 45 879.3
20260902000045 22 111 19.3 35.4 0.00 0.00 0.00 45 879.4
20260901234542 22 132 19.3 29.0 0.00 0.00 0.00 45 879.5
20260901233056 23 143 20.9 38.6 0.00 0.00 0.00 45 879.6
20260901231541 23 121 17.7 49.9 0.00 0.00 0.00 44 879.6
20260901230041 23 126 17.7 33.8 0.00 0.00 0.00 45 879.8
20260901224540 24 157 19.3 38.6 0.00 0.00 0.00 43 879.8
20260901223043 24 128 14.5 37.0 0.00 0.00 0.00 42 879.9
20260901221538 24 138 19.3 33.8 0.00 0.00 0.00 39 879.9
20260901214536 25 123 17.7 37.0 0.00 0.00 0.00 33 880.3
20260901213035 25 136 14.5 30.6 0.00 0.00 0.00 31 880.3
20260901211538 25 148 16.1 30.6 0.00 0.00 0.00 30 880.4
20260901210038 25 143 17.7 27.4 0.00 0.00 0.00 31 880.4
20260901204531 25 115 19.3 30.6 0.00 0.00 0.00 32 880.5
20260901203037 25 148 16.1 32.2 0.00 0.00 0.00 32 880.6
20260901201533 25 127 16.1 35.4 0.00 0.00 0.00 33 880.7
20260901200029 25 139 19.3 32.2 0.00 0.00 0.00 31 880.7
20260901194532 25 139 14.5 29.0 0.00 0.00 0.00 28 880.8
20260901193027 25 149 12.9 29.0 0.00 0.00 0.00 26 881.0
20260901191525 24 103 12.9 33.8 0.00 0.00 0.00 28 880.9
20260901190025 24 166 9.7 38.6 0.00 0.00 0.00 30 881.0
20260901184521 23 175 12.9 27.4 0.00 0.00 0.00 31 881.1
20260901183019 23 100 12.9 24.1 0.00 0.00 0.00 29 881.3
20260901181527 23 110 9.7 25.7 0.00 0.00 0.00 28 881.2
20260901180016 23 164 14.5 29.0 0.00 0.00 0.00 27 881.1
20260901174514 22 107 11.3 27.4 0.00 0.00 0.00 25 881.2
20260901173010 22 99 9.7 22.5 0.00 0.00 0.00 24 881.1
20260901171506 22 134 16.1 30.6 0.00 0.00 0.00 20 881.0
20260901170009 21 142 16.1 24.1 0.00 0.00 0.00 20 880.8
20260901164507 21 132 14.5 25.7 0.00 0.00 0.00 19 880.6
20260901163003 21 152 17.7 25.7 0.00 0.00 0.00 19 880.3
20260901161601 21 128 11.3 24.1 0.00 0.00 0.00 20 880.3
20260901160057 21 157 14.5 24.1 0.00 0.00 0.00 19 880.0
20260901154605 21 122 14.5 25.7 0.00 0.00 0.00 20 879.9
20260901153053 20 130 14.5 25.7 0.00 0.00 0.00 19 879.9
20260901151554 20 146 11.3 22.5 0.00 0.00 0.00 20 880.0
20260901150100 20 142 12.9 20.9 0.00 0.00 0.00 21 879.9
20260901144547 19 130 12.9 22.5 0.00 0.00 0.00 21 879.8
20260901143043 19 112 11.3 22.5 0.00 0.00 0.00 22 879.8
20260901141540 18 97 12.9 19.3 0.00 0.00 0.00 22 879.8
20260901140040 18 113 11.3 20.9 0.00 0.00 0.00 22 879.7
20260901134540 17 77 8.0 17.7 0.00 0.00 0.00 22 879.6
20260901133034 17 110 11.3 17.7 0.00 0.00 0.00 22 879.4
20260901131543 17 97 8.0 19.3 0.00 0.00 0.00 23 879.4
20260901130032 17 91 8.0 16.1 0.00 0.00 0.00 24 879.4
20260901124532 16 96 8.0 16.1 0.00 0.00 0.00 25 879.3
20260901123037 16 71 9.7 14.5 0.00 0.00 0.00 24 879.3
20260901121530 17 103 8.0 16.1 0.00 0.00 0.00 24 879.2
20260901120030 17 113 8.0 14.5 0.00 0.00 0.00 24 879.1
20260901114538 16 89 8.0 14.5 0.00 0.00 0.00 24 879.1
20260901113029 17 76 9.7 16.1 0.00 0.00 0.00 24 879.0
20260901111528 17 85 9.7 17.7 0.00 0.00 0.00 24 879.0
20260901110026 17 85 9.7 16.1 0.00 0.00 0.00 25 878.9
20260901104524 16 91 9.7 16.1 0.00 0.00 0.00 26 879.0